Skip Page Navigation
NASA JPL Caltech
NASA Logo - Jet Propulsion Laboratory + View the NASA Portal
+ Center for Near-Earth Object Studies
JPL Home Earth Solar System Stars & Galaxies Technology
JPL Solar System Dynamics
BODIES ORBITS EPHEMERIDES TOOLS PHYSICAL DATA DISCOVERY FAQ SITE MAP
IMPORTANT: The SSD Announcement email list is now available. Major changes are coming in the near future, including possible hostname and/or URL changes. To be notified of such changes, subscribe to this email list.

Please visit this page for more details.


JPL Small-Body Database Browser
Search: [ help ]  
434270 (2003 WQ24)
Classification: Inner Main-belt Asteroid          SPK-ID: 2434270
Ephemeris | Orbit Diagram | Orbital Elements | Mission Design | Physical Parameters | Discovery Circumstances ]

[ show orbit diagram ]
Orbital Elements at Epoch 2458600.5 (2019-Apr-27.0) TDB
Reference: JPL 12 (heliocentric ecliptic J2000)
 Element Value Uncertainty (1-sigma)   Units 
e .06955398568285813 1.29e-07  
a 1.867754558082299 1.907e-08 au
q 1.73784478429035 2.3131e-07 au
i 23.50998142102155 1.1904e-05 deg
node 250.6517361137215 1.5542e-05 deg
peri 21.95171337203023 0.00016274 deg
M 163.0180979850743 0.00014571 deg
tp 2458178.306585074122
(2018-Feb-28.80658507)
0.00038032 TDB
period 932.348194782839
2.55
1.4279e-05
3.909e-08
d
yr
n .3861218394742005 5.9135e-09 deg/d
Q 1.997664331874248 2.0396e-08 au
  Orbit Determination Parameters
   # obs. used (total)      104  
   data-arc span      5445 days (14.91 yr)  
   first obs. used      2003-11-20  
   last obs. used      2018-10-17  
   planetary ephem.      DE431  
   SB-pert. ephem.      SB431-N16  
   condition code      0  
   norm. resid. RMS      .5827  
   source      ORB  
   producer      Otto Matic  
   solution date      2018-Oct-31 05:28:48  

Additional Information
 Earth MOID = .7292 au 
 Jupiter MOID = 3.06489 au 
 T_jup = 3.882 
[ show covariance matrix ]

Ephemeris | Orbit Diagram | Orbital Elements | Mission Design | Physical Parameters | Discovery Circumstances ]

Physical Parameter Table
Parameter Symbol Value Units Sigma Reference Notes
absolute magnitude H 17.7   n/a MPO456071  

434270 (2003 WQ24)          Discovered 2003-Nov-20 by LINEAR at Socorro
Reference: Last Updated: 2015-06-04

Alternate Designations
 2003 WQ24 = 2010 LC104 
Ephemeris | Orbit Diagram | Orbital Elements | Mission Design | Physical Parameters | Discovery Circumstances ]
ABOUT SSD CREDITS/AWARDS PRIVACY/COPYRIGHT GLOSSARY LINKS
FirstGov
(server date/time)  
NASA Home Page
Site Manager:   Ryan S. Park
Webmaster  Alan B. Chamberlin